Weather Roundup
Issued by NWS Springfield, MO

Home | Current Version | Previous Version | Text Only | Print | Product List | Glossary On
Versions: 1 2 3 4 5 6 7 8 9 10 11 12 13 14 15 16 17 18 19 20 21 22 23 24 25 26 27 28 29 30 31 32 33 34 35 36 37 38 39 40 41 42 43 44 45 46 47 48 49 50
000
NZUS99 KSGF 131307
HRRSGF

HOURLY WEATHER
NATIONAL WEATHER SERVICE SPRINGFIELD MO
700 AM CST WED DEC 13 2017

......SGF CWA......

CITY           SKY/WX    TMP DP  RH WIND       PRES   REMARKS
SPRINGFIELD    CLEAR     32  23  69 S13       29.80F WCI  22
JOPLIN         CLEAR     41  26  55 S21G29    29.80F
WEST PLAINS    CLOUDY    31  15  52 SW7       29.86F WCI  24
ROLLA          CLEAR     33  19  56 S18       29.74F WCI  22
OSAGE BEACH    CLEAR     39  23  52 SW13      29.74F WCI  31
BRANSON        CLEAR     41  23  48 S7        29.85F

......SURROUNDING SGF CWA......

CITY           SKY/WX    TMP DP  RH WIND       PRES   REMARKS
CHANUTE        CLEAR     35  26  69 SW8       29.82R WCI  29
PARSONS        CLEAR     33  27  78 S8        29.83S WCI  26
COFFEYVILLE    CLEAR     34  27  75 S10       29.85S WCI  26
EMPORIA        CLEAR     40  21  46 W12       29.79R WCI  33
GROVE OK       CLEAR     37  28  70 S7        29.88S WCI  32
ROGERS AR      CLEAR     40  22  48 SW15      29.87F WCI  32
SILOAM SPRINGS CLEAR     37  22  54 S12       29.89F WCI  29
HARRISON AR    CLEAR     31  21  66 SE7       29.87F WCI  24
NEAR YELLVILLE CLEAR     31  18  58 CALM      29.90F

......KANSAS AND MISSOURI......

CITY           SKY/WX    TMP DP  RH WIND       PRES   REMARKS
KANSAS CTY INT PTCLDY    36  26  67 W12       29.70R WCI  28
DOWNTOWN KC    CLEAR     38  26  62 SW9       29.72R WCI  31
COLUMBIA       CLEAR     32  22  66 SW12      29.68F WCI  23
SEDALIA        CLEAR     40  27  59 SW22G30   29.70F WCI  30
ST JOSEPH      CLOUDY    30  24  78 CALM      29.70R
ST LOUIS       PTCLDY    30  18  60 S8        29.75F WCI  22
SPIRIT OF STL  CLEAR     33  20  58 SW8       29.74F WCI  26
KIRKSVILLE     CLEAR     34  31  88 SW16G29   29.60S WCI  24
WICHITA        CLOUDY    31  23  72 CALM      29.85R
TOPEKA         CLEAR     37  25  61 W5        29.75R WCI  33
OLATHE         CLEAR     34  26  72 SW9       29.73S WCI  27

......TENNESSEE......

CITY           SKY/WX    TMP DP  RH WIND       PRES   REMARKS
MEMPHIS        CLEAR     32  21  64 S7        30.03F WCI  26
NASHVILLE      CLOUDY    22  13  68 S6        30.03F WCI  14

......ARKANSAS.......

CITY           SKY/WX    TMP DP  RH WIND       PRES   REMARKS
FAYETTEVILLE   CLEAR     38  24  57 SW9       29.90F WCI  31
FT SMITH       CLOUDY    29  21  72 NE5       29.98F WCI  24
LITTLE ROCK    CLOUDY    27  21  78 CALM      30.04F

......OKLAHOMA.......

CITY           SKY/WX    TMP DP  RH WIND       PRES   REMARKS
TULSA          CLEAR     37  27  67 S7        29.89F WCI  32
PONCA CITY     CLEAR     33  24  69 SW6       29.87R WCI  28
MCALESTER      CLEAR     42  26  53 S9        29.97S
OKLAHOMA CITY  CLEAR     34  23  64 S10       29.91F WCI  26

......IOWA............

CITY           SKY/WX    TMP DP  RH WIND       PRES   REMARKS
DES MOINES     CLOUDY    39  23  52 W8        29.50F WCI  33
QUAD CITIES    CLOUDY    32  21  64 SW16G23   29.48F WCI  21

......ILLINOIS........

CITY           SKY/WX    TMP DP  RH WIND       PRES   REMARKS
QUINCY         CLEAR     33  21  61 S23       29.59F WCI  21
CHICAGO        CLOUDY    26  12  55 S12       29.62F WCI  16




USA.gov is the U.S. government's official web portal to all federal, state and local government web resources and services.